Weather in Gorka Murav'yevskaya

Russia / Arkhangel'skaya Oblast'     61°06′24″N   42°08′18″E
temp.,
°C
wind,
m/s
gust,
m/s
humid.,
%
clouds,
%
prec.,
mm/h
press.,
hPa
HPBL,
m
28 november, sun
sun2800:00−4ne41096100 1.4 1006398
03:00−4ne4996100 4.1 1003369
06:00−2ne3698100 2.6 1000248
09:00−3nne2498100 3.9 1000164
12:00−4n249698 0.8 1000175
15:00−5n2597100 1.5 1000178
18:00−5nne2596100 1.4 999165
21:00−5nnw2397100 3.9 1000140
29 november, mon
mon2900:00−6nw249795 1.4 1003209
03:00−8wnw279566 1.6 1007274
06:00−14w239895 0.0 101054
09:00−14nw1298100 0.0 101245
12:00−11nne2393100 0.0 1013165
15:00−13ne2597100 0.0 1012131
18:00−13ne3896100 0.0 1011189
21:00−12ne3995100 0.1 1009220
30 november, tue
tue3000:00−11ne41195100 0.4 1005287
03:00−9ene41394100 0.8 1001369
06:00−6ene51594100 0.3 995540
09:00−6ene51595100 1.1 989599
12:00−6ne51595100 2.9 983646
15:00−5ne51395100 5.3 977628
18:00−5ne51295100 2.3 973544
21:00−5nne41096100 5.2 971428
1 december, wed
wed100:00−6n4996100 2.8 971329
03:00−6nw3696100 4.6 972291
06:00−8wsw3695100 0.4 975226
09:00−9sw379494 0.5 978287
12:00−8wsw2694100 0.1 981343
15:00−9sw2595100 0.4 983306
18:00−11ssw1198100 0.2 98524
21:00−10sw2597100 0.2 986134
2 december, thu
thu200:00−11sw2597100 0.1 987156
03:00−11sw2696100 0.3 988209
06:00−10wsw2895100 0.2 989303
09:00−12wsw399463 0.2 991246
12:00−11wsw399461 0.0 993298
15:00−16ssw239873 0.0 99536
18:00−18ssw239951 0.0 99635
21:00−16sse1198100 0.0 99631